Location: Jonen
(52.7189°N, 6.0177°E)
Time: 03:29:08
(UTC+00:00)

ACS3 Solar Sail - Pass Details

Date: 22 May 2026
Orbit: 873 x 957 km, 97.2° (Epoch: 10 June)

Event Time Altitude Azimuth Distance (km) Brightness Sun altitude
Rises 02:15:22 0° 6° (N) 3,490 5.8 -8.8°
Reaches altitude 10° 02:18:20 10° 351° (N) 2,541 4.6 -8.6°
Maximum altitude 02:22:21 21° 305° (NW) 1,888 3.3 -8.2°
Drops below altitude 10° 02:26:22 10° 259° (W) 2,528 3.5 -7.8°
Enters shadow 02:27:48 - 250° (WSW) 2,963 3.8 -7.6°
